Location: Unspecified
(43.4680°N, 87.1740°E)
Time: 11:30:46
(UTC+00:00)

Daily predictions for brighter satellites

Satellite Brightness Start Highest point End
(mag) Time Altitude Azimuth Time Altitude Azimuth Time Altitude Azimuth
COSMO-SKYMED 1 2.7 12:00:35 10° NNE 12:04:51 52° E 12:09:04 10° S
Iridium 4 Rocket 4.1 12:00:28 10° NNE 12:05:23 35° E 12:09:53 10° SE
ERS-2 3.1 12:03:16 10° NE 12:06:23 26° E 12:09:29 10° SSE
Cosmos 1758 Rocket 4.4 12:03:25 10° SSE 12:07:18 30° E 12:11:14 10° NNE
Cosmos-2242 4.0 12:04:00 10° NNE 12:07:31 24° ENE 12:11:02 10° SE
Cosmos 1340 2.8 12:06:26 10° S 12:10:04 52° E 12:13:44 10° NNE
CZ-2C R/B 4.1 12:08:52 10° NE 12:12:28 17° E 12:16:04 10° SE
Cosmos 1455 3.1 12:17:02 10° NNW 12:20:46 52° W 12:24:30 10° S
Cosmos 1328 3.7 12:17:57 10° S 12:21:54 67° E 12:25:52 10° NNE
Cosmos 2195 Rocket 4.5 12:17:27 10° S 12:23:44 72° E 12:30:04 10° NNE
Cosmos 1602 Rocket 3.5 12:19:54 10° S 12:24:14 85° E 12:28:39 10° N
H-2A R/B 3.5 12:20:11 10° N 12:24:15 38° WNW 12:28:13 10° SW
ISS -1.9 12:22:58 10° WNW 12:25:37 21° N 12:27:20 15° NNE
Cosmos 1898 Rocket 3.6 12:23:18 10° SSW 12:28:35 79° WNW 12:33:50 10° NNE
CZ-4 R/B 4.3 12:24:36 10° SSE 12:28:43 76° ENE 12:32:54 10° N
SAR-Lupe-4 4.0 12:25:54 12° NNE 12:29:00 39° E 12:32:21 10° S
CZ-2D R/B 3.2 12:25:16 10° SSE 12:29:06 90° E 12:32:57 10° NNW
Feng Yun 1-1 Rocket 4.3 12:23:55 10° SSE 12:29:23 86° WSW 12:35:01 10° NNW
YAOGAN 1 2.8 12:25:46 10° SE 12:29:53 45° ENE 12:34:01 10° N
SJ 16-02 3.4 12:26:55 10° WSW 12:30:38 26° WNW 12:34:23 10° N
Cosmos 1428 Rocket 4.5 12:26:34 10° S 12:32:48 70° E 12:39:06 10° NNE
Cosmos 1680 Rocket 4.1 12:29:23 10° NNW 12:34:32 60° WSW 12:39:38 10° S
Cosmos 372 Rocket 4.3 12:30:23 10° S 12:35:18 45° ESE 12:39:44 13° NE
NOSS 3-1 (C) 4.2 12:28:20 10° NW 12:35:59 86° SW 12:44:47 10° SSE
X-37B 0.6 12:33:32 10° WNW 12:36:43 72° N 12:37:54 35° E
Cosmos 1689 Rocket 2.2 12:36:30 34° NE 12:37:16 44° E 12:39:59 10° S
Helios 1A Rocket 3.3 12:33:37 10° SE 12:37:29 40° ENE 12:41:23 10° N
Cosmos 1833 Rocket 2.7 12:32:45 10° NNW 12:38:18 56° ENE 12:43:48 10° SE
Cosmos 1825 Rocket 3.7 12:35:30 10° SSE 12:39:42 48° E 12:43:58 10° NNE
Okean O Rocket 3.9 12:36:21 10° SSW 12:40:10 28° W 12:44:00 10° NW
Cosmos 405 2.8 12:38:10 10° N 12:41:43 78° E 12:45:13 10° SSE
Cosmos 1939 Rocket 4.4 12:39:27 10° SSW 12:43:17 40° W 12:47:07 10° NNW
Cosmos 44 Rocket 4.2 12:40:22 10° S 12:44:31 28° ESE 12:45:23 27° E
Cosmos 1812 Rocket 3.8 12:40:20 10° NNW 12:44:42 70° W 12:49:00 10° S
SAR-Lupe-1 4.0 12:42:27 14° NNE 12:45:26 64° ESE 12:48:59 10° S
Okean-O 2.5 12:45:06 10° SSE 12:49:31 76° ENE 12:53:58 10° N
Cosmos 2098 Rocket 4.3 12:42:24 10° S 12:49:45 82° E 12:57:03 10° N
Meteor 1-27 4.3 12:45:28 10° N 12:50:57 53° ENE 12:56:22 10° SSE
COSMOS 2406 3.1 12:45:31 10° NNW 12:51:20 81° ENE 12:57:04 10° SSE
Cosmos 1937 Rocket 3.9 12:47:51 10° SSW 12:53:07 66° WNW 12:58:27 10° NNE
Cosmos 2082 Rocket 2.5 12:49:58 10° NNW 12:55:26 43° ENE 12:57:58 28° ESE
H-2A R/B 1.9 12:50:55 10° SSE 12:55:56 80° ENE 13:01:09 10° N
USA 229 DEB 3.9 12:49:20 10° NW 12:56:44 86° SW 13:04:30 10° SSE
USA 229 3.9 12:49:27 10° NW 12:56:50 87° WSW 13:04:36 10° SSE
MOS 1 Rocket 3.9 12:54:28 10° N 12:58:37 51° WNW 13:02:49 10° SSW
Meteor 2-19 Rocket 4.4 12:55:01 10° S 13:01:11 89° E 13:07:23 10° N
Cosmos 2298 Rocket 4.3 12:56:36 10° S 13:01:34 43° ESE 13:02:49 36° ENE
Cosmos 2292 Rocket 3.8 12:56:35 10° SSE 13:01:35 48° E 13:02:24 42° ENE
Cosmos 1953 Rocket 3.4 13:01:05 10° S 13:05:22 60° E 13:06:56 36° NNE
CZ-4B R/B 4.0 13:06:19 10° NNW 13:08:46 19° WNW 13:11:10 10° WSW
CZ-4 R/B 2.1 13:05:46 10° S 13:09:44 54° W 13:13:39 10° NNW
NOSS 3-1 (A) 4.2 13:04:45 10° NW 13:12:26 82° SW 13:21:15 10° SSE
CSL-04 Rocket 3.5 13:09:07 10° SSE 13:14:32 77° ENE 13:20:03 10° NNW
Aureole 3 Rocket 4.3 13:14:39 10° NNW 13:17:43 35° W 13:21:25 10° SSW
Cosmos 2278 Rocket 2.5 13:14:57 10° SW 13:20:35 66° WNW 13:24:58 17° NNE
Cosmos 2344 4.5 13:15:39 10° NW 13:25:21 84° SW 13:38:58 10° SSE
USA 234 4.3 13:28:27 27° NNE 13:29:52 30° N 13:35:21 10° NW
Cosmos 1346 Rocket 4.1 13:28:37 10° SW 13:32:18 39° WNW 13:34:48 18° NNW
SL-08 RB Rocket 3.5 13:33:51 87° NW 13:33:51 87° NW 13:38:17 10° NNW
USA 290 4.1 13:31:30 10° NW 13:34:21 30° WSW 13:34:23 30° WSW
Cosmos 2266 Rocket 3.8 13:29:13 10° S 13:35:24 69° E 13:41:32 10° NNE
Cosmos 1809 Rocket 4.3 13:32:03 10° S 13:38:09 80° E 13:44:19 10° N
ARGOS 3.7 13:36:35 10° S 13:41:51 58° W 13:47:10 10° NNW
Cosmos 1241 Rocket 4.4 13:46:14 10° SSW 13:52:42 89° WNW 13:53:46 66° NNE
CZ-2C R/B 2.9 13:49:19 20° N 13:53:15 70° WNW 13:58:49 10° SSW
CZ-4C R/B 4.5 14:05:38 10° NNW 14:08:46 17° N 14:08:46 17° N
Cosmos 2082 Rocket 3.8 14:34:26 10° NW 14:39:18 29° WSW 14:39:55 29° WSW
Cosmos 2278 Rocket 4.3 22:17:54 18° SSE 22:17:54 18° SSE 22:19:15 10° SSE
SL-16 R/B 4.4 22:10:03 10° SSE 22:14:16 22° E 22:18:28 10° NE
Cosmos 2237 Rocket 3.4 22:23:39 36° NE 22:23:39 36° NE 22:26:58 10° NNE
CZ-2C R/B 4.0 22:36:39 15° SE 22:36:39 15° SE 22:37:35 10° SE
USA 215 4.0 22:31:36 10° NE 22:36:46 40° N 22:36:46 40° N
Cosmos 2333 Rocket 4.4 22:46:42 13° N 22:46:42 13° N 22:47:33 10° N
Cosmos 1980 4.5 22:57:48 40° N 22:57:48 40° N 23:01:33 10° NNE
NOSS 3-2 (A) 3.6 22:55:02 44° S 22:56:42 63° ESE 23:02:57 10° NE
ATLAS 5 CENTAUR R/B 3.5 23:01:00 27° SE 23:01:00 27° SE 23:03:38 10° SE
Cosmos 372 Rocket 4.1 23:00:50 68° SSE 23:00:50 68° SSE 23:05:21 10° SSE
COSMO-SKYMED 1 3.5 22:56:26 10° SE 23:00:35 47° ENE 23:02:04 33° NNE
Gbstr 26 Del rocket 4.3 23:01:51 59° W 23:03:15 72° NNW 23:11:23 10° ENE
Meteor 1-21 Rocket 4.1 23:05:59 45° NNW 23:07:54 80° W 23:13:45 10° S
METEOR-M 3.9 23:03:25 10° N 23:08:47 78° WNW 23:09:02 75° WSW
USA 267 3.6 23:04:08 10° SSE 23:10:09 43° SW 23:10:09 43° SW
NOSS 3-2 (C) 4.2 23:05:48 11° S 23:10:57 47° ESE 23:16:54 10° NE
BREEZE-M DEB (TANK) 2.9 23:11:07 52° SE 23:11:07 52° SE 23:17:05 10° ENE
ADEOS 3.4 23:08:23 10° NNE 23:13:38 85° WNW 23:16:41 26° SSW
CENTAUR R/B 3.0 23:10:12 12° SSW 23:15:25 55° ESE 23:22:02 10° NE
Atlas Centaur 2 4.0 23:15:21 23° SSW 23:17:21 26° S 23:23:43 10° SE
Lacrosse 4 Rocket 2.3 23:20:38 40° N 23:20:38 40° N 23:23:38 10° NNE
Cosmos 1570 Rocket 4.5 23:22:52 42° NNW 23:22:52 42° NNW 23:26:53 10° N
FALCON 9 DEB 4.4 23:22:40 37° E 23:22:40 37° E 23:24:52 10° ENE
SKYMED 3 4.5 23:20:14 10° SSE 23:24:34 85° ENE 23:26:22 35° N
Cosmos 1464 Rocket 4.2 23:26:31 44° WNW 23:26:31 44° WNW 23:32:04 10° N
Cosmos 1626 Rocket 3.7 23:26:56 55° SW 23:26:56 55° SW 23:30:35 10° S
Cosmos 1814 Rocket 4.3 23:26:58 45° NW 23:26:58 45° NW 23:31:10 10° N
Meteor 2-13 Rocket 4.4 23:20:41 10° NNW 23:26:45 62° W 23:32:46 10° S
Cosmos 1346 Rocket 3.7 23:25:21 11° N 23:29:04 47° ENE 23:32:55 10° SSE
Envisat 4.4 23:24:47 10° NNE 23:29:32 39° E 23:34:15 10° SSE
Cosmos 2298 Rocket 3.9 23:26:40 25° NNW 23:29:53 89° WSW 23:35:12 10° SSE
Cosmos 1125 Rocket 3.9 23:25:17 13° NNW 23:30:00 64° ENE 23:35:16 10° SSE
Cosmos 1943 Rocket 2.8 23:28:09 11° NNW 23:33:28 55° ENE 23:39:01 10° SE
CZ-4B R/B 3.4 23:33:40 10° S 23:34:46 19° S 23:34:46 19° S
Cosmos 1340 4.3 23:39:45 21° SSW 23:39:45 21° SSW 23:41:12 10° S
YAOGAN 6 4.2 23:34:29 10° NNE 23:37:57 37° E 23:41:24 10° SSE
Meteor 1-16 Rocket 4.3 23:32:44 10° SSW 23:38:32 56° WNW 23:44:23 10° N
deb Chang Zheng 4 3.4 23:34:50 10° NNE 23:39:06 87° WNW 23:43:19 10° SSW
BREEZE-M DEB (TANK) 3.3 23:35:57 31° WNW 23:39:42 66° SW 23:43:06 10° SE
ATLAS CENTAUR R/B 2.6 23:46:05 23° N 23:46:05 23° N 23:48:03 10° NNE
Cosmos 2369 Rocket 3.3 23:41:30 10° NNW 23:46:49 42° ENE 23:52:05 10° SE
SKYMED 2 3.6 23:44:24 10° S 23:48:37 52° W 23:50:41 28° NW
Cosmos 1092 Rocket 3.9 23:44:19 10° NNW 23:50:27 70° W 23:56:36 10° S
Cosmos 1758 Rocket 3.5 23:47:57 10° N 23:52:28 86° W 23:56:54 10° S
USA 238 DEB 3.6 23:47:01 14° SW 23:52:50 70° NW 23:59:43 10° NNE
USA 238 3.6 23:47:03 13° SW 23:52:57 71° NW 23:59:49 10° NNE
ERBS 2.6 23:53:11 26° SSW 23:54:48 63° SE 23:58:03 10° NE
Cosmos 1328 3.9 23:54:22 38° NW 23:55:15 45° W 23:58:59 10° SSW
